Home   Weather   Choloma   Past weeks

Flag for Honduras Past Weather in Choloma, Honduras — Yesterday and Last 2 Weeks

Now
77 °F

Passing clouds.


Feels Like: 78 °F
Forecast: 73 / 92 °F
Wind: No wind

Location: La Mesa San Pedro Sula

Current Time: Jul 23, 2017 at 3:04:55 am

Latest Report: Jul 23, 2017 at 2:00 am


Visibility: N/A

Pressure: 29.92 "Hg

Humidity: 100%

Dew Point: 77 °F

Location of CholomaLocation

Past Weather in Choloma — Graph

°F

Choloma Temperature Yesterday

Maximum temperature yesterday: 90 °F (at 12:00 pm)
Minimum temperature yesterday: 75 °F (at 3:00 am)
Average temperature yesterday: 82 °F

High & Low Weather Summary for the Past Weeks

 TemperatureHumidityPressure
High91 °F (Jul 9, 1:00 pm)100% (Jul 8, 1:00 am)30.07 "Hg (Jul 8, 1:00 am)
Low70 °F (Jul 14, 5:00 am)67% (Jul 9, 12:00 pm)29.83 "Hg (Jul 17, 3:00 pm)
Average81 °F91%29.95 "Hg
* Reported Jul 8 1:00 am — Jul 23 1:00 am, Choloma. Weather by CustomWeather, © 2017

Note: Actual official high and low records may vary slightly from our data, if they occured in-between our weather recording intervals... More about our weather records

Advertising

Choloma Weather History for the Previous 24 Hours

Scroll right to see more
 ConditionsComfort  
Time TempWeatherWind HumidityBarometerVisibility
1:00 am
Sun, Jul 23
77 °FPassing clouds.3 mph100%29.95 "HgN/A
12:00 am79 °FPassing clouds.No wind94%29.95 "HgN/A
11:00 pm
Sat, Jul 22
79 °FPassing clouds.6 mph94%29.98 "HgN/A
10:00 pm79 °FPassing clouds.6 mph94%29.98 "HgN/A
9:00 pm81 °FPassing clouds.8 mph89%29.95 "HgN/A
8:00 pm82 °FPassing clouds.7 mph94%29.95 "HgN/A
7:00 pm82 °FPassing clouds.7 mph89%29.95 "HgN/A
6:00 pm84 °FScattered clouds.14 mph84%29.92 "HgN/A
5:00 pm86 °FPassing clouds.16 mph79%29.89 "HgN/A
4:00 pm88 °FPassing clouds.14 mph75%29.89 "HgN/A
3:00 pm90 °FPassing clouds.14 mph71%29.89 "HgN/A
2:00 pm90 °FScattered clouds.14 mph71%29.92 "HgN/A
1:00 pm90 °FScattered clouds.12 mph71%29.92 "HgN/A
12:00 pm90 °FScattered clouds.9 mph67%29.95 "HgN/A
11:00 am88 °FPassing clouds.2 mph70%29.98 "HgN/A
10:00 am86 °FPassing clouds.2 mph79%29.98 "HgN/A
9:00 am82 °FScattered clouds.No wind94%29.98 "HgN/A
8:00 am79 °FScattered clouds.2 mph100%29.98 "HgN/A
7:00 am77 °FPartly sunny.No wind100%29.98 "Hg4 mi
6:00 am75 °FBroken clouds.No wind100%N/AN/A
5:00 am75 °FPassing clouds.No wind100%29.95 "HgN/A
4:00 am75 °FPassing clouds.No wind100%29.95 "HgN/A
3:00 am75 °FPassing clouds.No wind100%29.95 "HgN/A
Weather by CustomWeather, © 2017

See weather overviewHow to use our weather pages